• Em Portugal
  • Lista de países
  • Para 7 dias
  • Temperatura da água
  • Mapas de satélite
  • Mapa do tempo
  • Widgets de tempo
  • user-avatar
    Iniciar Sessão

    Previsão horária em Skorodumka

    Hoje, 16 Novembro, Sexta-feira

    Tempo Temperatura Precipitação Vento Pressão Humidade
    00:00 -5°C° 0 mm 3 m/s 762 mmHg 29%
    01:00 -5°C° 0 mm 3 m/s 762 mmHg 29%
    02:00 -5°C° 0 mm 3 m/s 762 mmHg 29%
    03:00 -5°C° 0 mm 4 m/s 762 mmHg 30%
    04:00 -7°C° 0 mm 4 m/s 762 mmHg 30%
    05:00 -7°C° 0 mm 4 m/s 763 mmHg 31%
    06:00 -7°C° 0 mm 4 m/s 763 mmHg 30%
    07:00 -5°C° 0 mm 4 m/s 763 mmHg 30%
    08:00 -5°C° 0 mm 4 m/s 763 mmHg 29%
    09:00 -4°C° 0 mm 4 m/s 764 mmHg 26%
    10:00 -3°C° 0 mm 4 m/s 764 mmHg 23%
    11:00 -2°C° 0 mm 4 m/s 764 mmHg 21%
    12:00 -2°C° 0 mm 4 m/s 764 mmHg 21%
    13:00 -1°C° 0 mm 4 m/s 764 mmHg 21%
    14:00 -1°C° 0 mm 4 m/s 764 mmHg 21%
    15:00 -2°C° 0 mm 4 m/s 764 mmHg 23%
    16:00 -3°C° 0 mm 4 m/s 764 mmHg 24%
    17:00 -4°C° 0 mm 4 m/s 764 mmHg 26%
    18:00 -4°C° 0 mm 4 m/s 764 mmHg 25%
    19:00 -4°C° 0 mm 3 m/s 764 mmHg 25%
    20:00 -4°C° 0 mm 3 m/s 764 mmHg 25%
    21:00 -4°C° 0 mm 3 m/s 764 mmHg 25%
    22:00 -5°C° 0 mm 3 m/s 764 mmHg 25%
    23:00 -5°C° 0 mm 3 m/s 764 mmHg 25%

    Amanhã, 17 Novembro, Sábado

    Tempo Temperatura Precipitação Vento Pressão Humidade
    00:00 -5°C° 0 mm 3 m/s 764 mmHg 25%
    01:00 -5°C° 0 mm 3 m/s 764 mmHg 25%
    02:00 -4°C° 0 mm 2 m/s 764 mmHg 25%
    03:00 -4°C° 0 mm 2 m/s 763 mmHg 25%
    04:00 -5°C° 0 mm 2 m/s 763 mmHg 25%
    05:00 -5°C° 0 mm 2 m/s 763 mmHg 25%
    06:00 -5°C° 0 mm 2 m/s 763 mmHg 24%
    07:00 -4°C° 0 mm 2 m/s 763 mmHg 23%
    08:00 -4°C° 0 mm 2 m/s 763 mmHg 22%
    09:00 -3°C° 0 mm 2 m/s 762 mmHg 21%
    10:00 0°C° 0 mm 1 m/s 762 mmHg 19%
    11:00 +1°C° 0 mm 1 m/s 762 mmHg 17%
    12:00 +1°C° 0 mm 1 m/s 761 mmHg 18%
    13:00 +2°C° 0 mm 1 m/s 761 mmHg 19%
    14:00 +2°C° 0 mm 1 m/s 760 mmHg 20%
    15:00 +1°C° 0 mm 1 m/s 759 mmHg 21%
    16:00 0°C° 0 mm 1 m/s 759 mmHg 21%
    17:00 -1°C° 0 mm 1 m/s 758 mmHg 22%
    18:00 -1°C° 0 mm 1 m/s 758 mmHg 21%
    19:00 -1°C° 0 mm 1 m/s 757 mmHg 21%
    20:00 -1°C° 0 mm 1 m/s 757 mmHg 21%
    21:00 -3°C° 0 mm 2 m/s 756 mmHg 21%
    22:00 -3°C° 0 mm 2 m/s 755 mmHg 21%
    23:00 -3°C° 0 mm 2 m/s 755 mmHg 21%

    Depois de amanhã, 18 Novembro, Domingo

    Tempo Temperatura Precipitação Vento Pressão Humidade
    00:00 -4°C° 0 mm 3 m/s 754 mmHg 22%
    01:00 -4°C° 0 mm 3 m/s 753 mmHg 22%
    02:00 -5°C° 0 mm 3 m/s 753 mmHg 22%
    03:00 -4°C° 0 mm 3 m/s 752 mmHg 22%
    04:00 -4°C° 0 mm 3 m/s 751 mmHg 23%
    05:00 -4°C° 0 mm 3 m/s 750 mmHg 23%
    06:00 -4°C° 0 mm 3 m/s 750 mmHg 24%
    07:00 -4°C° 0 mm 3 m/s 749 mmHg 25%
    08:00 -4°C° 0 mm 4 m/s 749 mmHg 26%
    09:00 -3°C° 0 mm 4 m/s 749 mmHg 27%
    10:00 -2°C° 0 mm 4 m/s 749 mmHg 28%
    11:00 -2°C° 0 mm 4 m/s 748 mmHg 29%
    12:00 -1°C° 0 mm 3 m/s 748 mmHg 30%
    13:00 -1°C° 0 mm 3 m/s 748 mmHg 32%
    14:00 0°C° 0 mm 3 m/s 748 mmHg 34%
    15:00 -1°C° 0 mm 3 m/s 748 mmHg 36%
    16:00 -2°C° 0 mm 3 m/s 748 mmHg 39%
    17:00 -3°C° 0 mm 2 m/s 748 mmHg 41%
    18:00 -3°C° 0 mm 2 m/s 748 mmHg 43%
    19:00 -3°C° 0 mm 2 m/s 748 mmHg 46%
    20:00 -3°C° 0 mm 2 m/s 748 mmHg 48%
    21:00 -3°C° 0 mm 2 m/s 748 mmHg 48%
    22:00 -3°C° 0 mm 2 m/s 749 mmHg 48%
    23:00 -3°C° 0 mm 2 m/s 749 mmHg 48%

    19 Novembro, Segunda-feira

    Tempo Temperatura Precipitação Vento Pressão Humidade
    00:00 -3°C° 0 mm 2 m/s 749 mmHg 47%
    01:00 -3°C° 0 mm 2 m/s 749 mmHg 46%
    02:00 -3°C° 0 mm 2 m/s 750 mmHg 45%
    03:00 -4°C° 0 mm 2 m/s 750 mmHg 45%
    04:00 -4°C° 0 mm 2 m/s 750 mmHg 45%
    05:00 -4°C° 0 mm 2 m/s 750 mmHg 45%
    06:00 -4°C° 0 mm 2 m/s 751 mmHg 45%
    07:00 -4°C° 0 mm 2 m/s 751 mmHg 45%
    08:00 -4°C° 0 mm 2 m/s 752 mmHg 45%
    09:00 -3°C° 0 mm 2 m/s 752 mmHg 42%
    10:00 -2°C° 0 mm 2 m/s 752 mmHg 40%
    11:00 -1°C° 0 mm 2 m/s 753 mmHg 37%
    12:00 -1°C° 0 mm 2 m/s 753 mmHg 38%
    13:00 -1°C° 0 mm 2 m/s 753 mmHg 38%
    14:00 -1°C° 0 mm 2 m/s 754 mmHg 38%
    15:00 -1°C° 0 mm 3 m/s 754 mmHg 42%
    16:00 -2°C° 0 mm 3 m/s 754 mmHg 45%
    17:00 -2°C° 0 mm 3 m/s 754 mmHg 49%
    18:00 -2°C° 0 mm 3 m/s 755 mmHg 50%
    19:00 -2°C° 0 mm 3 m/s 755 mmHg 51%
    20:00 -2°C° 0 mm 3 m/s 755 mmHg 52%
    21:00 -2°C° 0 mm 3 m/s 756 mmHg 51%
    22:00 -2°C° 0 mm 3 m/s 756 mmHg 51%
    23:00 -2°C° 0 mm 3 m/s 756 mmHg 50%

    20 Novembro, Terça-feira

    Tempo Temperatura Precipitação Vento Pressão Humidade
    00:00 -2°C° 0 mm 3 m/s 756 mmHg 50%
    01:00 -4°C° 0 mm 3 m/s 756 mmHg 50%
    02:00 -4°C° 0 mm 3 m/s 756 mmHg 50%
    03:00 -4°C° 0 mm 4 m/s 756 mmHg 49%
    04:00 -4°C° 0 mm 4 m/s 756 mmHg 48%
    05:00 -4°C° 0 mm 4 m/s 756 mmHg 47%
    06:00 -4°C° 0 mm 4 m/s 756 mmHg 47%
    07:00 -3°C° 0 mm 4 m/s 756 mmHg 47%
    08:00 -3°C° 0 mm 4 m/s 757 mmHg 47%
    09:00 -3°C° 0 mm 4 m/s 756 mmHg 50%
    10:00 -3°C° 0 mm 4 m/s 756 mmHg 54%
    11:00 -2°C° 0 mm 4 m/s 756 mmHg 58%
    12:00 -2°C° 0 mm 4 m/s 756 mmHg 61%
    13:00 -2°C° 0 mm 4 m/s 756 mmHg 64%
    14:00 -2°C° 0 mm 4 m/s 756 mmHg 66%
    15:00 -2°C° 0 mm 4 m/s 756 mmHg 69%
    16:00 -3°C° 0 mm 4 m/s 755 mmHg 71%
    17:00 -2°C° 0 mm 3 m/s 755 mmHg 73%
    18:00 -4°C° 0 mm 3 m/s 755 mmHg 71%
    19:00 -4°C° 0 mm 3 m/s 755 mmHg 68%
    20:00 -4°C° 0 mm 3 m/s 755 mmHg 65%
    21:00 -4°C° 0 mm 3 m/s 755 mmHg 63%
    22:00 -4°C° 0 mm 3 m/s 755 mmHg 61%
    23:00 -4°C° 0 mm 3 m/s 755 mmHg 59%

    21 Novembro, Quarta-feira

    Tempo Temperatura Precipitação Vento Pressão Humidade
    00:00 -4°C° 0 mm 3 m/s 754 mmHg 57%
    01:00 -4°C° 0 mm 3 m/s 754 mmHg 56%
    02:00 -4°C° 0 mm 3 m/s 754 mmHg 54%
    03:00 -5°C° 0 mm 3 m/s 754 mmHg 54%
    04:00 -5°C° 0 mm 3 m/s 753 mmHg 54%
    05:00 -5°C° 0 mm 4 m/s 753 mmHg 54%
    06:00 -5°C° 0 mm 4 m/s 753 mmHg 55%
    07:00 -4°C° 0 mm 4 m/s 753 mmHg 56%
    08:00 -4°C° 0 mm 4 m/s 752 mmHg 57%
    09:00 -4°C° 0 mm 5 m/s 752 mmHg 56%
    10:00 -4°C° 0 mm 5 m/s 752 mmHg 55%
    11:00 -2°C° 0 mm 5 m/s 751 mmHg 54%
    12:00 -1°C° 0 mm 5 m/s 751 mmHg 55%
    13:00 -1°C° 0 mm 5 m/s 750 mmHg 56%
    14:00 -1°C° 0 mm 5 m/s 750 mmHg 57%
    15:00 -2°C° 0 mm 5 m/s 750 mmHg 58%
    16:00 -2°C° 0 mm 5 m/s 749 mmHg 59%
    17:00 -2°C° 0 mm 5 m/s 749 mmHg 60%
    18:00 -2°C° 0 mm 5 m/s 749 mmHg 61%
    19:00 -3°C° 0 mm 6 m/s 748 mmHg 62%
    20:00 -3°C° 0 mm 6 m/s 748 mmHg 63%
    21:00 -3°C° 0.1 mm 6 m/s 748 mmHg 67%
    22:00 -3°C° 0.1 mm 6 m/s 747 mmHg 70%
    23:00 -3°C° 0.1 mm 6 m/s 747 mmHg 73%
    Mostrar mais